Time,TemperatureF,DewpointF,PressureIn,WindDirection,WindDirectionDegrees,WindSpeedMPH,WindSpeedGustMPH,Humidity,HourlyPrecipIn,Conditions,Clouds,dailyrainin,SoftwareType,DateUTC
2014-04-17 00:02:00,30.0,30.0,-100.00,East,90,9.0,14.0,99,-99.99,,,-99.99,,2014-04-17 05:02:00,
2014-04-17 00:22:00,30.0,30.0,-100.00,East,85,6.0,18.0,99,-99.99,,,-99.99,,2014-04-17 05:22:00,
2014-04-17 00:33:00,30.0,30.0,-100.00,East,85,6.0,18.0,99,-99.99,,,-99.99,,2014-04-17 05:33:00,
2014-04-17 00:43:00,30.0,30.0,-100.00,East,85,6.0,18.0,99,-99.99,,,-99.99,,2014-04-17 05:43:00,
2014-04-17 00:53:00,30.0,30.0,-100.00,East,85,6.0,18.0,99,-99.99,,,-99.99,,2014-04-17 05:53:00,
2014-04-17 01:02:00,30.0,30.0,-100.00,East,85,6.0,18.0,99,-99.99,,,-99.99,,2014-04-17 06:02:00,
2014-04-17 01:22:00,30.0,30.0,-100.00,East,95,9.0,16.0,99,-99.99,,,-99.99,,2014-04-17 06:22:00,
2014-04-17 01:32:00,30.0,30.0,-100.00,East,95,9.0,16.0,99,-99.99,,,-99.99,,2014-04-17 06:32:00,
2014-04-17 01:42:00,30.0,30.0,-100.00,East,95,9.0,16.0,99,-99.99,,,-99.99,,2014-04-17 06:42:00,
2014-04-17 01:52:00,30.0,30.0,-100.00,East,95,9.0,16.0,99,-99.99,,,-99.99,,2014-04-17 06:52:00,
2014-04-17 02:22:00,30.0,30.0,-100.00,ESE,105,6.0,17.0,99,-99.99,,,-99.99,,2014-04-17 07:22:00,
2014-04-17 02:32:00,30.0,30.0,-100.00,ESE,105,6.0,17.0,99,-99.99,,,-99.99,,2014-04-17 07:32:00,
2014-04-17 02:42:00,30.0,30.0,-100.00,ESE,105,6.0,17.0,99,-99.99,,,-99.99,,2014-04-17 07:42:00,
2014-04-17 02:52:00,30.0,30.0,-100.00,ESE,105,6.0,17.0,99,-99.99,,,-99.99,,2014-04-17 07:52:00,
2014-04-17 03:02:00,30.0,30.0,-100.00,ESE,105,6.0,17.0,99,-99.99,,,-99.99,,2014-04-17 08:02:00,
2014-04-17 03:22:00,30.0,30.0,-100.00,East,85,9.0,16.0,99,-99.99,,,-99.99,,2014-04-17 08:22:00,
2014-04-17 03:34:00,30.0,30.0,-100.00,East,85,9.0,16.0,99,-99.99,,,-99.99,,2014-04-17 08:34:00,
2014-04-17 03:42:00,30.0,30.0,-100.00,East,85,9.0,16.0,99,-99.99,,,-99.99,,2014-04-17 08:42:00,
2014-04-17 03:53:00,30.0,30.0,-100.00,East,85,9.0,16.0,99,-99.99,,,-99.99,,2014-04-17 08:53:00,
2014-04-17 04:01:00,30.0,30.0,-100.00,East,85,9.0,16.0,99,-99.99,,,-99.99,,2014-04-17 09:01:00,
2014-04-17 04:02:00,30.0,30.0,-100.00,East,100,9.0,19.0,99,-99.99,,,-99.99,,2014-04-17 09:02:00,
2014-04-17 04:22:00,30.0,30.0,-100.00,East,100,9.0,19.0,99,-99.99,,,-99.99,,2014-04-17 09:22:00,
2014-04-17 04:33:00,30.0,30.0,-100.00,East,100,9.0,19.0,99,-99.99,,,-99.99,,2014-04-17 09:33:00,
2014-04-17 04:43:00,30.0,30.0,-100.00,East,100,9.0,19.0,99,-99.99,,,-99.99,,2014-04-17 09:43:00,
2014-04-17 04:54:00,30.0,30.0,-100.00,East,100,9.0,19.0,99,-99.99,,,-99.99,,2014-04-17 09:54:00,
2014-04-17 05:23:00,31.0,31.0,-100.00,East,90,7.0,16.0,99,-99.99,,,-99.99,,2014-04-17 10:23:00,
2014-04-17 05:33:00,31.0,31.0,-100.00,East,90,7.0,16.0,99,-99.99,,,-99.99,,2014-04-17 10:33:00,
2014-04-17 05:42:00,31.0,31.0,-100.00,East,90,7.0,16.0,99,-99.99,,,-99.99,,2014-04-17 10:42:00,
2014-04-17 05:53:00,31.0,31.0,-100.00,East,90,7.0,16.0,99,-99.99,,,-99.99,,2014-04-17 10:53:00,
2014-04-17 06:02:00,31.0,31.0,-100.00,East,90,7.0,16.0,99,-99.99,,,-99.99,,2014-04-17 11:02:00,
2014-04-17 06:22:00,31.0,31.0,-100.00,East,90,5.0,14.0,99,-99.99,,,-99.99,,2014-04-17 11:22:00,
2014-04-17 06:33:00,31.0,31.0,-100.00,East,90,5.0,14.0,99,-99.99,,,-99.99,,2014-04-17 11:33:00,
2014-04-17 06:43:00,31.0,31.0,-100.00,East,90,5.0,14.0,99,-99.99,,,-99.99,,2014-04-17 11:43:00,
2014-04-17 06:53:00,31.0,31.0,-100.00,East,90,5.0,14.0,99,-99.99,,,-99.99,,2014-04-17 11:53:00,
2014-04-17 07:02:00,31.0,31.0,-100.00,East,90,5.0,14.0,99,-99.99,,,-99.99,,2014-04-17 12:02:00,
2014-04-17 07:42:00,31.0,31.0,-100.00,East,100,6.0,14.0,99,-99.99,,,-99.99,,2014-04-17 12:42:00,
2014-04-17 07:52:00,31.0,31.0,-100.00,East,100,6.0,14.0,99,-99.99,,,-99.99,,2014-04-17 12:52:00,
2014-04-17 08:02:00,31.0,31.0,-100.00,East,100,6.0,14.0,99,-99.99,,,-99.99,,2014-04-17 13:02:00,
2014-04-17 08:22:00,32.0,31.0,-100.00,East,90,7.0,13.0,99,-99.99,,,-99.99,,2014-04-17 13:22:00,
2014-04-17 08:32:00,32.0,31.0,-100.00,East,90,7.0,13.0,99,-99.99,,,-99.99,,2014-04-17 13:32:00,
2014-04-17 08:42:00,32.0,31.0,-100.00,East,90,7.0,13.0,99,-99.99,,,-99.99,,2014-04-17 13:42:00,
2014-04-17 08:52:00,32.0,31.0,-100.00,East,90,7.0,13.0,99,-99.99,,,-99.99,,2014-04-17 13:52:00,
2014-04-17 09:02:00,32.0,31.0,-100.00,East,90,7.0,13.0,99,-99.99,,,-99.99,,2014-04-17 14:02:00,
2014-04-17 09:42:00,32.0,32.0,-100.00,East,100,4.0,14.0,99,-99.99,,,-99.99,,2014-04-17 14:42:00,
2014-04-17 09:54:00,32.0,32.0,-100.00,East,100,4.0,14.0,99,-99.99,,,-99.99,,2014-04-17 14:54:00,
2014-04-17 10:02:00,32.0,32.0,-100.00,East,100,4.0,14.0,99,-99.99,,,-99.99,,2014-04-17 15:02:00,
2014-04-17 10:22:00,33.0,32.0,-100.00,SE,140,4.0,10.0,99,-99.99,,,-99.99,,2014-04-17 15:22:00,
2014-04-17 10:34:00,33.0,32.0,-100.00,SE,140,4.0,10.0,99,-99.99,,,-99.99,,2014-04-17 15:34:00,
2014-04-17 10:44:00,33.0,32.0,-100.00,SE,140,4.0,10.0,99,-99.99,,,-99.99,,2014-04-17 15:44:00,
2014-04-17 10:54:00,33.0,32.0,-100.00,SE,140,4.0,10.0,99,-99.99,,,-99.99,,2014-04-17 15:54:00,
2014-04-17 11:02:00,33.0,33.0,-100.00,SE,130,6.0,11.0,99,-99.99,,,-99.99,,2014-04-17 16:02:00,
2014-04-17 11:23:00,33.0,33.0,-100.00,SE,130,6.0,11.0,99,-99.99,,,-99.99,,2014-04-17 16:23:00,
2014-04-17 11:33:00,33.0,33.0,-100.00,SE,130,6.0,11.0,99,-99.99,,,-99.99,,2014-04-17 16:33:00,
2014-04-17 11:45:00,33.0,33.0,-100.00,SE,130,6.0,11.0,99,-99.99,,,-99.99,,2014-04-17 16:45:00,
2014-04-17 11:54:00,33.0,33.0,-100.00,SE,130,6.0,11.0,99,-99.99,,,-99.99,,2014-04-17 16:54:00,
2014-04-17 12:23:00,36.0,36.0,-100.00,ENE,60,4.0,6.0,99,-99.99,,,-99.99,,2014-04-17 17:23:00,
2014-04-17 12:34:00,36.0,36.0,-100.00,ENE,60,4.0,6.0,99,-99.99,,,-99.99,,2014-04-17 17:34:00,
2014-04-17 12:42:00,36.0,36.0,-100.00,ENE,60,4.0,6.0,99,-99.99,,,-99.99,,2014-04-17 17:42:00,
2014-04-17 12:52:00,36.0,36.0,-100.00,ENE,60,4.0,6.0,99,-99.99,,,-99.99,,2014-04-17 17:52:00,
2014-04-17 13:02:00,36.0,36.0,-100.00,ENE,60,4.0,6.0,99,-99.99,,,-99.99,,2014-04-17 18:02:00,
2014-04-17 13:43:00,37.0,37.0,-100.00,West,270,4.0,6.0,99,-99.99,,,-99.99,,2014-04-17 18:43:00,
2014-04-17 13:56:00,37.0,37.0,-100.00,West,270,4.0,6.0,99,-99.99,,,-99.99,,2014-04-17 18:56:00,
2014-04-17 14:02:00,37.0,37.0,-100.00,West,270,4.0,6.0,99,-99.99,,,-99.99,,2014-04-17 19:02:00,
2014-04-17 14:22:00,38.0,38.0,-100.00,West,270,4.0,7.0,99,-99.99,,,-99.99,,2014-04-17 19:22:00,
2014-04-17 14:33:00,38.0,38.0,-100.00,West,270,4.0,7.0,99,-99.99,,,-99.99,,2014-04-17 19:33:00,
2014-04-17 14:42:00,38.0,38.0,-100.00,West,270,4.0,7.0,99,-99.99,,,-99.99,,2014-04-17 19:42:00,
2014-04-17 14:53:00,38.0,38.0,-100.00,West,270,4.0,7.0,99,-99.99,,,-99.99,,2014-04-17 19:53:00,
2014-04-17 15:02:00,38.0,38.0,-100.00,West,270,4.0,7.0,99,-99.99,,,-99.99,,2014-04-17 20:02:00,
2014-04-17 15:22:00,37.0,37.0,-100.00,West,265,6.0,9.0,99,-99.99,,,-99.99,,2014-04-17 20:22:00,
2014-04-17 15:32:00,37.0,37.0,-100.00,West,265,6.0,9.0,99,-99.99,,,-99.99,,2014-04-17 20:32:00,
2014-04-17 15:42:00,37.0,37.0,-100.00,West,265,6.0,9.0,99,-99.99,,,-99.99,,2014-04-17 20:42:00,
2014-04-17 15:52:00,37.0,37.0,-100.00,West,265,6.0,9.0,99,-99.99,,,-99.99,,2014-04-17 20:52:00,
2014-04-17 17:23:00,36.0,36.0,-100.00,West,280,4.0,9.0,99,-99.99,,,-99.99,,2014-04-17 22:23:00,
2014-04-17 17:33:00,36.0,36.0,-100.00,West,280,4.0,9.0,99,-99.99,,,-99.99,,2014-04-17 22:33:00,
2014-04-17 17:43:00,36.0,36.0,-100.00,West,280,4.0,9.0,99,-99.99,,,-99.99,,2014-04-17 22:43:00,
2014-04-17 17:53:00,36.0,36.0,-100.00,West,280,4.0,9.0,99,-99.99,,,-99.99,,2014-04-17 22:53:00,
2014-04-17 18:02:00,36.0,36.0,-100.00,West,280,4.0,9.0,99,-99.99,,,-99.99,,2014-04-17 23:02:00,
2014-04-17 18:22:00,35.0,35.0,-100.00,West,275,6.0,9.0,99,-99.99,,,-99.99,,2014-04-17 23:22:00,
2014-04-17 18:34:00,35.0,35.0,-100.00,West,275,6.0,9.0,99,-99.99,,,-99.99,,2014-04-17 23:34:00,
2014-04-17 18:43:00,35.0,35.0,-100.00,West,275,6.0,9.0,99,-99.99,,,-99.99,,2014-04-17 23:43:00,
2014-04-17 18:53:00,35.0,35.0,-100.00,West,275,6.0,9.0,99,-99.99,,,-99.99,,2014-04-17 23:53:00,
2014-04-17 19:22:00,34.0,34.0,-100.00,WNW,290,5.0,10.0,99,-99.99,,,-99.99,,2014-04-18 00:22:00,
2014-04-17 19:32:00,34.0,34.0,-100.00,WNW,290,5.0,10.0,99,-99.99,,,-99.99,,2014-04-18 00:32:00,
2014-04-17 19:42:00,34.0,34.0,-100.00,WNW,290,5.0,10.0,99,-99.99,,,-99.99,,2014-04-18 00:42:00,
2014-04-17 19:52:00,34.0,34.0,-100.00,WNW,290,5.0,10.0,99,-99.99,,,-99.99,,2014-04-18 00:52:00,
2014-04-17 20:01:00,34.0,34.0,-100.00,WNW,290,5.0,10.0,99,-99.99,,,-99.99,,2014-04-18 01:01:00,
2014-04-17 20:02:00,33.0,33.0,-100.00,West,280,6.0,12.0,99,-99.99,,,-99.99,,2014-04-18 01:02:00,
2014-04-17 20:22:00,33.0,33.0,-100.00,West,280,6.0,12.0,99,-99.99,,,-99.99,,2014-04-18 01:22:00,
2014-04-17 20:32:00,33.0,33.0,-100.00,West,280,6.0,12.0,99,-99.99,,,-99.99,,2014-04-18 01:32:00,
2014-04-17 20:42:00,33.0,33.0,-100.00,West,280,6.0,12.0,99,-99.99,,,-99.99,,2014-04-18 01:42:00,
2014-04-17 20:52:00,33.0,33.0,-100.00,West,280,6.0,12.0,99,-99.99,,,-99.99,,2014-04-18 01:52:00,
2014-04-17 21:02:00,33.0,32.0,-100.00,NW,305,6.0,12.0,99,-99.99,,,-99.99,,2014-04-18 02:02:00,
2014-04-17 21:22:00,33.0,32.0,-100.00,NW,305,6.0,12.0,99,-99.99,,,-99.99,,2014-04-18 02:22:00,
2014-04-17 21:32:00,33.0,32.0,-100.00,NW,305,6.0,12.0,99,-99.99,,,-99.99,,2014-04-18 02:32:00,
2014-04-17 21:42:00,33.0,32.0,-100.00,NW,305,6.0,12.0,99,-99.99,,,-99.99,,2014-04-18 02:42:00,
2014-04-17 21:52:00,33.0,32.0,-100.00,NW,305,6.0,12.0,99,-99.99,,,-99.99,,2014-04-18 02:52:00,
2014-04-17 22:22:00,32.0,32.0,-100.00,WNW,290,4.0,7.0,99,-99.99,,,-99.99,,2014-04-18 03:22:00,
2014-04-17 22:34:00,32.0,32.0,-100.00,WNW,290,4.0,7.0,99,-99.99,,,-99.99,,2014-04-18 03:34:00,
2014-04-17 22:43:00,32.0,32.0,-100.00,WNW,290,4.0,7.0,99,-99.99,,,-99.99,,2014-04-18 03:43:00,
2014-04-17 22:54:00,32.0,32.0,-100.00,WNW,290,4.0,7.0,99,-99.99,,,-99.99,,2014-04-18 03:54:00,